Location: Newark
(33.6333°S, 78.8500°W)
Time: 00:07:18
(UTC+00:00)

N. Korean satellite - Visible Passes

Search period start: 24 September 2020 00:00
Search period end: 04 October 2020 00:00
Orbit: 455 x 503 km, 97.2° (Epoch: 23 September)

Date Brightness Start Highest point End Pass type
(mag) Time Alt. Az. Time Alt. Az. Time Alt. Az.
24 Sep 9.6 09:18:08 10° ENE 09:20:25 17° ESE 09:22:42 10° SSE visible
24 Sep 10.5 23:55:40 10° WSW 23:56:13 10° WSW 23:56:46 10° WSW visible
25 Sep 6.7 10:24:08 10° N 10:27:30 48° W 10:30:53 10° SSW visible
26 Sep 6.9 09:58:03 10° NNE 10:01:29 64° ESE 10:04:56 10° S visible
27 Sep 8.9 09:32:38 10° NE 09:35:34 26° ESE 09:38:31 10° SSE visible
28 Sep 10.1 09:08:21 10° E 09:09:44 12° ESE 09:11:08 10° SE visible
28 Sep 10.0 23:43:33 10° SW 23:45:33 14° WSW 23:47:34 10° WNW visible
29 Sep 6.4 10:13:16 10° N 10:16:43 71° W 10:20:11 10° SSW visible
30 Sep 7.8 09:47:26 10° NNE 09:50:44 43° ESE 09:54:03 10° S visible
01 Oct 9.5 09:22:21 10° ENE 09:24:50 19° ESE 09:27:21 10° SSE visible
03 Oct 6.6 10:02:29 10° NNE 10:05:53 77° E 10:09:23 10° S visible
